Terug naar catalogus

STARLINK-36911

ActiefCommunicatieVLEO
NORAD 68008·PAYLOAD·🇺🇸 United States

Gelanceerd Feb 27, 2026 vanaf Vandenberg Space Force Base

Loading…

Volgende Passages (komende 24 uur)

TLE

VersSource: CelesTrak SupGP

Epoch: Sep 14, 2026, 22:39 UTC

1 68008C 26039Y   26257.94423611  .00057819  00000+0  20939-2 0  2575
2 68008  43.0033  60.1287 0001789 278.0810 213.6107 15.27554276    17

Volg STARLINK-36911 in realtime met AllMySat

Download on the App Store